| time (UTC) | temp F | wind direction | speed MPH | gust MPH | rain 1hr in | rain 24hr in | rain mn in | humidity % | barometer mb |
| 20260504190903 | 76 | 216 | 12.0 | 29.0 | 0.00 | 0.00 | 0.00 | 47 | 1004.0 |
| 20260504190024 | 76 | 218 | 10.0 | 29.0 | 0.00 | 0.00 | 0.00 | 48 | 1004.0 |
| 20260504185403 | 76 | 221 | 10.0 | 27.0 | 0.00 | 0.00 | 0.00 | 48 | 1004.2 |
| 20260504184524 | 76 | 218 | 9.0 | 19.0 | 0.00 | 0.00 | 0.00 | 48 | 1004.1 |
| 20260504183603 | 75 | 226 | 7.0 | 18.0 | 0.00 | 0.00 | 0.00 | 51 | 1004.3 |
| 20260504182724 | 74 | 229 | 9.0 | 23.0 | 0.00 | 0.00 | 0.00 | 50 | 1004.3 |
| 20260504181803 | 74 | 225 | 8.0 | 24.0 | 0.00 | 0.00 | 0.00 | 50 | 1004.6 |
| 20260504180924 | 74 | 236 | 6.0 | 14.0 | 0.00 | 0.00 | 0.00 | 53 | 1004.7 |
| 20260504180003 | 74 | 225 | 9.0 | 25.0 | 0.00 | 0.00 | 0.00 | 52 | 1004.7 |
| 20260504175425 | 74 | 223 | 9.0 | 25.0 | 0.00 | 0.00 | 0.00 | 51 | 1004.8 |
| 20260504174503 | 73 | 249 | 6.0 | 19.0 | 0.00 | 0.00 | 0.00 | 53 | 1004.7 |
| 20260504173603 | 73 | 232 | 6.0 | 19.0 | 0.00 | 0.00 | 0.00 | 51 | 1005.0 |
| 20260504172703 | 73 | 211 | 8.0 | 30.0 | 0.00 | 0.00 | 0.00 | 51 | 1005.0 |
| 20260504171803 | 72 | 220 | 7.0 | 17.0 | 0.00 | 0.00 | 0.00 | 52 | 1005.0 |
| 20260504170903 | 72 | 208 | 9.0 | 19.0 | 0.00 | 0.00 | 0.00 | 52 | 1005.1 |
| 20260504150903 | 65 | 229 | 6.0 | 15.0 | 0.00 | 0.00 | 0.00 | 61 | 1006.7 |
| 20260504140903 | 61 | 223 | 6.0 | 14.0 | 0.00 | 0.00 | 0.00 | 65 | 1006.8 |
| 20260504081824 | 47 | 205 | 4.0 | 10.0 | 0.00 | 0.00 | 0.00 | 80 | 1008.0 |
| 20260504080903 | 47 | 203 | 4.0 | 9.0 | 0.00 | 0.00 | 0.00 | 80 | 1008.1 |
| 20260504050003 | 49 | 186 | 4.0 | 10.0 | 0.00 | 0.00 | 0.00 | 76 | 1010.0 |
| 20260504045403 | 49 | 182 | 4.0 | 10.0 | 0.00 | 0.00 | 0.00 | 77 | 1010.0 |
| 20260504044504 | 49 | 191 | 4.0 | 14.0 | 0.00 | 0.00 | 0.00 | 77 | 1010.1 |
| 20260504043603 | 49 | 190 | 5.0 | 11.0 | 0.00 | 0.00 | 0.00 | 77 | 1010.2 |
| 20260504042703 | 49 | 192 | 4.0 | 11.0 | 0.00 | 0.00 | 0.00 | 77 | 1010.2 |
| 20260504041803 | 49 | 178 | 4.0 | 9.0 | 0.00 | 0.00 | 0.00 | 77 | 1010.3 |
| 20260504040924 | 49 | 190 | 4.0 | 9.0 | 0.00 | 0.00 | 0.00 | 77 | 1010.4 |
| 20260504040004 | 49 | 183 | 4.0 | 13.0 | 0.00 | 0.00 | 0.00 | 77 | 1010.5 |
| 20260504035403 | 49 | 183 | 4.0 | 13.0 | 0.00 | 0.00 | 0.00 | 77 | 1010.5 |
| 20260504034504 | 49 | 188 | 4.0 | 12.0 | 0.00 | 0.00 | 0.00 | 76 | 1010.7 |
| 20260504033603 | 49 | 184 | 4.0 | 12.0 | 0.00 | 0.00 | 0.00 | 76 | 1010.8 |
| 20260504032703 | 50 | 187 | 4.0 | 12.0 | 0.00 | 0.00 | 0.00 | 76 | 1010.9 |
| 20260504031803 | 50 | 188 | 4.0 | 11.0 | 0.00 | 0.00 | 0.00 | 76 | 1010.9 |
| 20260504030903 | 50 | 189 | 5.0 | 12.0 | 0.00 | 0.00 | 0.00 | 76 | 1011.0 |
| 20260504030003 | 50 | 196 | 6.0 | 15.0 | 0.00 | 0.00 | 0.00 | 76 | 1011.0 |
| 20260504025424 | 50 | 194 | 6.0 | 12.0 | 0.00 | 0.00 | 0.00 | 76 | 1011.1 |
| 20260504024503 | 50 | 184 | 6.0 | 14.0 | 0.00 | 0.00 | 0.00 | 76 | 1011.2 |
| 20260504023603 | 50 | 191 | 6.0 | 18.0 | 0.00 | 0.00 | 0.00 | 76 | 1011.2 |
| 20260504022703 | 50 | 196 | 6.0 | 18.0 | 0.00 | 0.00 | 0.00 | 76 | 1011.3 |
| 20260504021824 | 50 | 187 | 5.0 | 14.0 | 0.00 | 0.00 | 0.00 | 76 | 1011.4 |
| 20260504020924 | 49 | 191 | 6.0 | 14.0 | 0.00 | 0.00 | 0.00 | 77 | 1011.4 |
| 20260504020003 | 49 | 191 | 6.0 | 16.0 | 0.00 | 0.00 | 0.00 | 78 | 1011.4 |
| 20260504015404 | 49 | 185 | 6.0 | 15.0 | 0.00 | 0.00 | 0.00 | 78 | 1011.3 |
| 20260504014524 | 49 | 194 | 6.0 | 15.0 | 0.00 | 0.00 | 0.00 | 78 | 1011.4 |
| 20260504013603 | 50 | 182 | 6.0 | 15.0 | 0.00 | 0.00 | 0.00 | 77 | 1011.2 |
| 20260504012703 | 50 | 192 | 6.0 | 14.0 | 0.00 | 0.00 | 0.00 | 75 | 1011.4 |
| 20260504011803 | 50 | 196 | 4.0 | 11.0 | 0.00 | 0.00 | 0.00 | 75 | 1011.6 |
| 20260504010924 | 50 | 185 | 5.0 | 10.0 | 0.00 | 0.00 | 0.00 | 75 | 1011.3 |
| 20260504010024 | 50 | 187 | 5.0 | 12.0 | 0.00 | 0.00 | 0.00 | 75 | 1011.5 |
| 20260504005403 | 50 | 189 | 5.0 | 14.0 | 0.00 | 0.00 | 0.00 | 75 | 1011.6 |
| 20260504004503 | 50 | 181 | 4.0 | 10.0 | 0.00 | 0.00 | 0.00 | 74 | 1011.8 |
| 20260504003603 | 50 | 191 | 4.0 | 10.0 | 0.00 | 0.00 | 0.00 | 74 | 1011.9 |
| 20260504002703 | 50 | 189 | 3.0 | 10.0 | 0.00 | 0.00 | 0.00 | 73 | 1012.0 |
| 20260504001803 | 50 | 193 | 4.0 | 9.0 | 0.00 | 0.00 | 0.00 | 72 | 1012.0 |
| 20260504000903 | 50 | 180 | 3.0 | 10.0 | 0.00 | 0.00 | 0.00 | 71 | 1012.0 |
| 20260504000003 | 50 | 188 | 4.0 | 10.0 | 0.00 | 0.00 | 0.00 | 71 | 1012.0 |
| 20260503235403 | 51 | 191 | 4.0 | 10.0 | 0.00 | 0.00 | 0.00 | 71 | 1012.0 |
| 20260503234503 | 51 | 181 | 4.0 | 10.0 | 0.00 | 0.00 | 0.00 | 71 | 1012.0 |
| 20260503233603 | 51 | 182 | 3.0 | 9.0 | 0.00 | 0.00 | 0.00 | 72 | 1011.9 |
| 20260503232703 | 50 | 186 | 4.0 | 9.0 | 0.00 | 0.00 | 0.00 | 72 | 1012.1 |
| 20260503231803 | 50 | 180 | 4.0 | 9.0 | 0.00 | 0.00 | 0.00 | 72 | 1012.1 |
| 20260503230903 | 50 | 195 | 4.0 | 11.0 | 0.00 | 0.00 | 0.00 | 72 | 1012.3 |
| 20260503230004 | 51 | 190 | 3.0 | 10.0 | 0.00 | 0.00 | 0.00 | 72 | 1012.5 |
| 20260503225403 | 51 | 193 | 4.0 | 10.0 | 0.00 | 0.00 | 0.00 | 72 | 1012.5 |
| 20260503224504 | 51 | 195 | 4.0 | 10.0 | 0.00 | 0.00 | 0.00 | 72 | 1012.6 |
| 20260503223624 | 51 | 193 | 4.0 | 11.0 | 0.00 | 0.00 | 0.00 | 72 | 1012.8 |
| 20260503222703 | 51 | 195 | 4.0 | 13.0 | 0.00 | 0.00 | 0.00 | 71 | 1012.8 |
| 20260503221803 | 51 | 208 | 6.0 | 13.0 | 0.00 | 0.00 | 0.00 | 70 | 1012.9 |
| 20260503220903 | 52 | 212 | 6.0 | 13.0 | 0.00 | 0.00 | 0.00 | 69 | 1013.0 |
| 20260503220003 | 52 | 221 | 7.0 | 17.0 | 0.00 | 0.00 | 0.00 | 68 | 1013.4 |
| 20260503215403 | 52 | 221 | 7.0 | 17.0 | 0.00 | 0.00 | 0.00 | 68 | 1013.4 |
| 20260503214503 | 52 | 221 | 7.0 | 19.0 | 0.00 | 0.00 | 0.00 | 69 | 1013.6 |
| 20260503213603 | 52 | 230 | 8.0 | 20.0 | 0.00 | 0.00 | 0.00 | 69 | 1013.8 |
| 20260503212703 | 52 | 235 | 9.0 | 21.0 | 0.00 | 0.00 | 0.00 | 68 | 1013.9 |
| 20260503211803 | 53 | 253 | 8.0 | 23.0 | 0.00 | 0.00 | 0.00 | 67 | 1013.9 |
| 20260503210903 | 54 | 249 | 9.0 | 21.0 | 0.00 | 0.00 | 0.00 | 64 | 1014.0 |
| 20260503210004 | 55 | 249 | 7.0 | 18.0 | 0.00 | 0.00 | 0.00 | 62 | 1013.8 |
| 20260503205403 | 56 | 255 | 8.0 | 18.0 | 0.00 | 0.00 | 0.00 | 61 | 1013.7 |
| 20260503204503 | 57 | 256 | 8.0 | 24.0 | 0.00 | 0.00 | 0.00 | 56 | 1013.7 |
| 20260503203624 | 59 | 227 | 8.0 | 20.0 | 0.00 | 0.00 | 0.00 | 45 | 1013.5 |
| 20260503202703 | 59 | 226 | 8.0 | 17.0 | 0.00 | 0.00 | 0.00 | 44 | 1013.5 |
| 20260503201803 | 60 | 225 | 7.0 | 19.0 | 0.00 | 0.00 | 0.00 | 44 | 1013.7 |
| 20260503200924 | 60 | 223 | 7.0 | 21.0 | 0.00 | 0.00 | 0.00 | 42 | 1013.6 |
| 20260503200003 | 60 | 232 | 8.0 | 20.0 | 0.00 | 0.00 | 0.00 | 42 | 1013.7 |
| 20260503195403 | 60 | 225 | 8.0 | 20.0 | 0.00 | 0.00 | 0.00 | 41 | 1013.8 |
| 20260503194503 | 60 | 214 | 7.0 | 22.0 | 0.00 | 0.00 | 0.00 | 41 | 1013.9 |
| 20260503193603 | 60 | 222 | 8.0 | 22.0 | 0.00 | 0.00 | 0.00 | 40 | 1014.0 |
| 20260503192703 | 61 | 223 | 6.0 | 17.0 | 0.00 | 0.00 | 0.00 | 41 | 1014.1 |
| 20260503191824 | 61 | 216 | 9.0 | 23.0 | 0.00 | 0.00 | 0.00 | 40 | 1014.2 |